Dewpoint
68 70 74 74 74 73 73 73 73 74 74 75 74 74 75 75 75 75 75 75 74 75 74 75 75 74 74 74 73 74 72 74 74 73 72 74 74 74 74 73 73 69 74
67 70 74 73 74 74 74 74 74 74 74 74 75 75 75 74 74 74 74 74 74 75 74 74 74 74 74 74 74 74 74 74 74 72 71 73 74 74 74 73 74 72 74
67 70 71 74 74 74 74 74 73 73 74 75 75 75 75 75 75 74 74 75 74 75 74 74 74 74 74 74 74 74 73 74 74 74 71 66 68 74 74 74 73 73 73
68 70 71 74 75 74 74 74 73 73 75 75 75 75 75 75 75 74 75 74 74 75 74 74 73 73 73 73 74 72 72 73 74 72 70 68 69 72 73 74 73 73 72
70 71 73 74 74 74 74 74 74 74 74 75 75 74 74 75 75 74 75 75 74 74 74 73 73 73 74 74 73 72 72 73 73 71 70 68 69 72 71 71 71 73 73
70 71 74 74 73 73 73 74 74 74 74 74 74 74 74 75 74 74 74 74 74 73 73 74 73 73 73 73 72 73 72 72 71 71 70 68 68 73 71 71 73 71 71
69 69 71 74 73 73 72 72 73 74 73 74 74 74 74 74 74 74 74 74 74 74 74 74 73 73 74 74 74 73 72 71 69 71 71 69 69 72 71 70 73 73 71
67 70 72 74 74 74 73 73 72 73 74 74 74 74 74 74 74 75 74 73 73 73 73 74 74 73 73 73 73 72 70 69 65 67 70 69 74 73 72 71 70 71 70
68 72 72 72 73 73 73 73 73 72 73 74 74 74 74 74 74 74 74 74 73 72 73 73 74 74 74 74 74 72 72 70 64 66 64 65 73 71 73 73 71 71 71
69 71 71 73 73 73 71 73 73 73 73 74 74 74 74 74 74 74 75 75 73 73 73 73 73 73 73 73 73 72 73 69 64 66 68 70 73 70 69 74 72 72 70
69 70 71 70 71 72 72 72 73 73 73 74 74 75 74 74 72 71 74 73 73 72 72 72 72 71 73 74 72 70 70 65 66 65 66 73 73 73 70 69 69 71 71
68 69 71 70 71 71 71 74 74 73 73 74 74 74 73 74 73 71 73 73 73 72 72 71 72 72 70 68 69 71 69 67 66 68 67 73 72 71 71 70 69 69 70
68 69 71 72 73 73 73 74 72 72 71 73 74 74 73 72 73 73 72 71 71 71 69 69 69 68 69 70 72 70 70 68 65 66 68 72 72 72 71 70 70 71 71
69 69 71 72 74 74 73 71 71 71 70 69 71 73 72 70 72 71 70 72 72 70 71 71 70 72 69 70 70 70 69 68 65 65 67 72 73 73 74 73 71 72 72
68 69 71 72 74 74 74 72 71 71 70 69 71 71 71 70 71 70 72 70 71 71 70 71 71 69 67 66 69 71 68 69 66 66 66 71 72 73 72 74 73 73 73
68 68 70 71 73 73 72 73 72 73 71 71 71 71 72 70 71 71 71 70 71 71 71 71 72 70 68 67 67 70 70 69 67 68 66 67 71 74 73 72 73 73 74
68 69 69 70 71 72 73 72 72 72 71 70 70 72 71 72 72 72 71 71 71 72 72 71 70 71 68 66 67 67 68 68 67 68 68 67 67 70 71 72 74 74 74
68 70 70 69 69 71 72 72 71 72 72 72 72 69 70 72 73 73 71 71 73 72 71 70 70 70 68 69 68 68 68 68 69 69 69 68 68 67 72 72 72 73 74
69 70 70 70 68 70 71 72 72 73 72 72 73 72 72 72 72 73 71 72 74 72 70 70 71 71 69 67 65 67 69 68 67 65 68 69 68 68 68 73 72 73 73
69 71 71 70 69 69 71 71 71 71 71 72 74 72 73 72 73 73 71 73 72 71 70 71 73 71 69 67 64 65 68 67 68 67 66 66 67 68 68 72 71 69 74
69 70 71 71 70 68 69 68 69 69 71 71 73 73 74 74 74 74 72 72 72 71 72 74 72 72 69 70 68 65 65 65 66 66 65 65 67 66 68 69 69 69 69
69 70 71 71 71 69 68 69 69 71 70 71 72 73 73 73 73 74 74 72 73 71 73 74 74 70 70 71 67 67 61 62 63 62 65 65 67 65 67 69 71 73 71
68 69 70 71 70 70 71 70 71 71 73 71 71 72 72 73 72 73 73 73 74 73 70 73 73 74 69 71 72 67 62 59 63 64 66 67 70 67 67 69 71 72 74
68 69 70 71 70 71 73 71 72 68 69 73 73 73 74 74 73 72 73 73 75 72 74 74 73 74 73 70 71 69 70 70 65 60 65 68 68 68 71 69 71 72 74
67 68 69 71 72 72 73 72 70 73 74 70 72 74 75 75 74 72 74 74 75 73 74 75 74 75 72 70 69 70 71 66 70 66 63 65 67 69 69 71 71 70 71
66 67 68 70 72 72 73 73 73 73 74 74 72 70 73 71 72 74 74 74 74 74 74 74 75 74 74 73 71 71 69 67 66 65 65 67 68 68 70 71 70 71 70
Lifted_Index
-3 -4 -5 -5 -5 -5 -5 -5 -5 -6 -6 -6 -6 -6 -6 -6 -6 -6 -6 -6 -5 -5 -5 -5 -5 -5 -4 -4 -4 -4 -4 -4 -4 -3 -3 -4 -4 -4 -4 -4 -4 -4 -4
-3 -4 -5 -5 -6 -5 -5 -5 -5 -6 -6 -6 -6 -6 -6 -6 -6 -6 -6 -6 -6 -5 -5 -5 -5 -5 -5 -4 -4 -4 -4 -4 -4 -3 -3 -3 -4 -4 -4 -4 -4 -4 -4
-4 -4 -5 -6 -6 -6 -5 -5 -6 -6 -6 -7 -7 -7 -7 -6 -6 -6 -6 -6 -6 -6 -5 -5 -5 -5 -5 -5 -4 -4 -4 -4 -4 -3 -3 -3 -3 -4 -4 -4 -4 -4 -4
-4 -5 -5 -6 -6 -6 -6 -6 -6 -6 -7 -7 -7 -7 -7 -7 -7 -7 -7 -6 -6 -6 -5 -5 -5 -5 -5 -5 -4 -4 -3 -4 -4 -4 -3 -2 -3 -3 -4 -4 -4 -4 -4
-4 -5 -5 -6 -6 -6 -6 -6 -6 -6 -7 -7 -7 -7 -7 -7 -7 -7 -7 -7 -6 -6 -5 -5 -5 -5 -5 -5 -4 -4 -3 -3 -4 -3 -3 -2 -3 -3 -3 -3 -3 -4 -4
-4 -5 -5 -5 -5 -5 -6 -6 -6 -6 -7 -7 -7 -7 -7 -7 -7 -7 -7 -6 -6 -6 -6 -5 -5 -5 -5 -5 -5 -4 -3 -3 -3 -3 -3 -2 -2 -3 -3 -3 -3 -3 -3
-4 -4 -5 -5 -5 -5 -5 -6 -6 -6 -7 -7 -7 -7 -7 -7 -7 -7 -7 -6 -6 -6 -6 -6 -6 -5 -5 -5 -5 -4 -3 -2 -2 -3 -3 -3 -3 -3 -3 -3 -3 -3 -3
-4 -4 -5 -5 -5 -6 -6 -6 -6 -6 -7 -7 -7 -7 -7 -7 -7 -7 -7 -6 -6 -6 -6 -6 -6 -5 -5 -5 -4 -4 -3 -2 -1 -2 -2 -3 -3 -4 -3 -3 -3 -3 -3
-4 -4 -5 -5 -5 -6 -6 -6 -6 -6 -6 -7 -7 -7 -7 -7 -7 -7 -7 -6 -6 -6 -6 -6 -6 -5 -5 -5 -5 -4 -3 -2 -1 -1 -2 -3 -3 -4 -4 -4 -4 -3 -3
-4 -4 -5 -5 -5 -5 -5 -6 -6 -6 -6 -7 -7 -7 -7 -7 -7 -7 -7 -6 -6 -6 -5 -5 -5 -5 -5 -5 -5 -4 -3 -2 -2 -2 -2 -3 -4 -4 -4 -4 -4 -3 -3
-4 -4 -5 -5 -5 -5 -6 -6 -6 -6 -6 -7 -7 -7 -7 -7 -7 -6 -6 -6 -6 -5 -5 -5 -5 -5 -5 -5 -4 -4 -4 -3 -2 -2 -3 -4 -4 -4 -3 -3 -3 -3 -3
-4 -4 -5 -5 -5 -5 -6 -6 -6 -6 -6 -7 -7 -7 -7 -7 -7 -6 -6 -6 -5 -5 -5 -5 -4 -4 -4 -4 -5 -5 -4 -3 -3 -3 -3 -4 -4 -4 -4 -3 -3 -3 -3
-4 -4 -5 -5 -5 -5 -5 -5 -5 -6 -6 -6 -6 -6 -7 -7 -7 -6 -6 -6 -5 -5 -5 -4 -4 -4 -4 -5 -5 -6 -5 -4 -3 -3 -3 -4 -5 -5 -4 -4 -3 -3 -3
-4 -4 -5 -5 -5 -5 -5 -5 -5 -5 -5 -5 -5 -6 -6 -6 -6 -6 -5 -5 -5 -5 -5 -5 -5 -4 -4 -5 -6 -6 -5 -4 -3 -3 -3 -4 -5 -5 -5 -5 -4 -4 -4
-3 -4 -4 -5 -5 -5 -5 -4 -5 -5 -5 -5 -5 -5 -5 -5 -5 -5 -5 -5 -5 -5 -5 -5 -5 -5 -4 -4 -5 -6 -5 -4 -4 -3 -3 -4 -5 -5 -6 -5 -5 -5 -5
-3 -3 -4 -4 -4 -4 -4 -4 -4 -5 -5 -5 -5 -5 -5 -5 -5 -5 -5 -5 -5 -5 -5 -5 -5 -5 -5 -5 -5 -5 -5 -5 -4 -3 -4 -4 -4 -5 -5 -5 -5 -6 -6
-3 -3 -3 -4 -4 -4 -4 -4 -4 -5 -5 -5 -5 -5 -5 -5 -5 -5 -5 -5 -5 -5 -5 -5 -5 -5 -5 -5 -5 -5 -5 -5 -4 -4 -4 -4 -4 -4 -4 -5 -5 -6 -6
-3 -3 -3 -3 -3 -3 -4 -4 -4 -4 -5 -5 -5 -5 -5 -5 -5 -5 -5 -5 -5 -5 -5 -5 -6 -6 -6 -6 -6 -5 -5 -5 -5 -5 -5 -5 -5 -5 -4 -5 -5 -6 -6
-3 -3 -3 -3 -2 -2 -3 -4 -4 -4 -4 -5 -5 -5 -5 -5 -5 -6 -5 -5 -5 -5 -5 -6 -6 -6 -6 -6 -6 -6 -6 -6 -5 -5 -5 -5 -6 -5 -5 -5 -5 -6 -6
-3 -3 -3 -3 -2 -2 -2 -3 -3 -4 -4 -5 -5 -5 -5 -5 -6 -6 -5 -5 -5 -5 -6 -6 -7 -6 -6 -6 -6 -6 -6 -6 -6 -6 -6 -6 -6 -6 -6 -6 -6 -6 -6
-3 -3 -3 -3 -2 -2 -2 -2 -3 -3 -4 -4 -5 -5 -5 -5 -6 -6 -5 -5 -5 -5 -6 -7 -7 -7 -7 -7 -7 -6 -6 -5 -5 -5 -5 -6 -6 -6 -6 -6 -6 -6 -6
-3 -3 -3 -3 -2 -2 -2 -2 -3 -3 -4 -4 -5 -5 -5 -5 -5 -5 -5 -5 -5 -6 -6 -7 -7 -7 -7 -7 -7 -6 -5 -5 -5 -5 -5 -6 -6 -6 -6 -6 -7 -7 -7
-3 -3 -3 -3 -2 -2 -2 -3 -3 -3 -3 -4 -4 -5 -5 -5 -5 -5 -5 -5 -5 -6 -6 -7 -7 -7 -7 -7 -7 -7 -6 -6 -6 -5 -6 -6 -6 -6 -6 -7 -7 -8 -8
-3 -3 -3 -3 -2 -3 -3 -3 -3 -3 -3 -4 -4 -5 -5 -5 -5 -5 -5 -5 -6 -6 -6 -7 -7 -7 -7 -7 -7 -7 -7 -7 -6 -6 -6 -7 -7 -7 -7 -7 -7 -8 -8
-3 -3 -3 -3 -3 -3 -4 -4 -4 -3 -3 -4 -4 -4 -5 -5 -5 -5 -5 -5 -6 -6 -6 -7 -7 -7 -7 -7 -7 -7 -7 -7 -7 -7 -7 -7 -7 -7 -7 -7 -7 -7 -7
-3 -3 -3 -3 -3 -3 -4 -4 -4 -4 -4 -4 -4 -4 -5 -5 -5 -5 -5 -6 -6 -6 -6 -7 -7 -7 -7 -7 -7 -8 -7 -7 -7 -7 -7 -7 -7 -7 -7 -7 -7 -7 -7